Location: Emporia
(38.4040°N, 96.1810°W)
Time: 15:13:13
(UTC-06:00)

Amateur Radio Satellites - All Passes

Search period start: 22 November 2014 14:43
Search period end: 23 November 2014 14:43
Location: Emporia, 38.4040°N, 96.1810°W

Satellite Date Start Highest point End Downlink Frequencies (MHz)
Time Altitude Azimuth
BEESAT 22 Nov 14:43:19 14:47:37 34° 290° (WNW) 14:51:53 436.000
ITAMSAT 1 22 Nov 14:45:37 14:50:08 30° 264° (W) 14:54:41 435.822/435.867
HORYU 2 22 Nov 14:48:25 14:52:50 77° 75° (ENE) 14:57:16 437.375
Gurwin Techsat 1B 22 Nov 14:53:59 14:59:02 45° 261° (W) 15:04:08 435.225
SO-50 22 Nov 15:03:59 15:07:45 22° 249° (WSW) 15:11:31 436.795
PHONESAT 2.4 22 Nov 15:12:43 15:14:21 13° 143° (SE) 15:15:59 2401.200-2431.200
MaSat-1 22 Nov 15:25:02 15:27:13 17° 109° (ESE) 15:29:16 437.345
RS-15 22 Nov 15:26:22 15:34:56 27° 103° (ESE) 15:43:23 29.354- 29.394
AUBIESAT-1 22 Nov 15:26:43 15:28:23 12° 304° (WNW) 15:30:03 437.475
YUBILEINY 22 Nov 15:29:41 15:37:42 43° 273° (W) 15:45:41 435.215
M-CUBED/EXP-1 PRIME 22 Nov 15:30:05 15:30:43 10° 305° (NW) 15:31:20 437.505
VERMONT LUNAR 22 Nov 15:38:11 15:41:15 26° 150° (SSE) 15:44:19 437.305
ITUPSAT 1 22 Nov 15:39:20 15:40:20 11° 299° (WNW) 15:41:19 437.325
STARS 22 Nov 15:41:01 15:45:17 52° 287° (WNW) 15:49:31 437.465
JAS-2 22 Nov 15:44:34 15:50:51 30° 63° (ENE) 15:57:22 435.910
KKS-1 22 Nov 16:14:37 16:17:24 17° 295° (WNW) 16:20:11 437.445
AO-7 22 Nov 16:26:33 16:34:33 53° 258° (WSW) 16:42:39 29.400- 29.500
O/OREOS (USA 219) 22 Nov 16:30:01 16:34:18 44° 65° (ENE) 16:38:35 437.305
PHONESAT 2.4 22 Nov 16:49:00 16:52:38 54° 157° (SSE) 16:56:17 2401.200-2431.200
MOZHAYETS 4 22 Nov 16:50:08 16:54:19 32° 97° (E) 16:58:28
Cubesat XI-IV 22 Nov 16:54:45 16:58:58 24° 66° (ENE) 17:03:12 437.490
MaSat-1 22 Nov 16:59:39 17:01:46 17° 300° (WNW) 17:03:46 437.345
VERMONT LUNAR 22 Nov 17:15:53 17:19:31 88° 344° (NNW) 17:23:10 437.305
JAS-2 22 Nov 17:28:01 17:35:18 59° 261° (W) 17:43:03 435.910
RS-15 22 Nov 17:35:10 17:46:08 75° 303° (WNW) 17:57:07 29.354- 29.394
CUTE-I 22 Nov 17:36:02 17:41:16 57° 72° (ENE) 17:46:31 437.470
PRISM 22 Nov 17:49:59 17:53:28 24° 96° (E) 17:56:55 437.425
O/OREOS (USA 219) 22 Nov 18:10:41 18:13:17 15° 261° (W) 18:15:53 437.305
CUBESAT XI-V 22 Nov 18:21:08 18:24:39 21° 94° (E) 18:28:07 437.345
MOZHAYETS 4 22 Nov 18:27:40 18:31:21 24° 292° (WNW) 18:35:02
PHONESAT 2.4 22 Nov 18:27:46 18:31:28 65° 354° (N) 18:35:10 2401.200-2431.200
Cubesat XI-IV 22 Nov 18:33:44 18:38:47 41° 261° (W) 18:43:52 437.490
VERMONT LUNAR 22 Nov 18:54:34 18:58:11 60° 2° (N) 19:01:47 437.305
STRAND 1 22 Nov 18:57:39 19:02:36 48° 100° (E) 19:07:30 437.568
HO-68 22 Nov 19:05:12 19:10:29 23° 59° (ENE) 19:15:46 435.675
CUTE-I 22 Nov 19:18:18 19:21:40 17° 268° (W) 19:25:03 437.470
CUTE 1.7 & AOD 2 22 Nov 19:20:20 19:21:05 10° 63° (ENE) 19:21:50 437.475
GONETS M04 22 Nov 19:22:17 19:30:36 43° 75° (ENE) 19:38:48
PRISM 22 Nov 19:25:25 19:28:57 26° 291° (WNW) 19:32:27 437.425
RS-15 22 Nov 19:52:18 20:00:44 25° 330° (NNW) 20:09:16 29.354- 29.394
PCSat 22 Nov 19:52:32 19:57:14 31° 109° (ESE) 20:01:58 145.827
SEEDS 22 Nov 19:55:21 19:58:38 23° 69° (ENE) 20:01:57 437.485
CUBESAT XI-V 22 Nov 19:57:54 20:02:10 35° 289° (WNW) 20:06:22 437.345
DX 1 22 Nov 20:02:03 20:02:57 11° 62° (ENE) 20:03:50 434.975-435.025
BEESAT 2 22 Nov 20:04:26 20:05:45 11° 107° (ESE) 20:07:05 435.950
PHONESAT 2.4 22 Nov 20:06:44 20:10:28 74° 11° (NNE) 20:14:10 2401.200-2431.200
DOVE 4 22 Nov 20:07:29 20:10:57 21° 69° (ENE) 20:14:18 437.250
AIST 1 22 Nov 20:11:46 20:16:05 62° 94° (E) 20:20:27
CANX-2 22 Nov 20:17:11 20:21:16 52° 74° (ENE) 20:25:23 2200.000
AAUSAT CUBESAT 2 22 Nov 20:19:18 20:22:58 31° 71° (ENE) 20:26:40 437.432
GOMX 1 22 Nov 20:31:03 20:35:49 50° 74° (ENE) 20:40:17 467.674
COMPASS 1 22 Nov 20:31:35 20:35:36 50° 74° (ENE) 20:39:39 437.405
VERMONT LUNAR 22 Nov 20:33:09 20:36:46 73° 199° (SSW) 20:40:23 437.305
STRAND 1 22 Nov 20:37:49 20:41:24 20° 296° (WNW) 20:44:58 437.568
BRITE-PL 22 Nov 20:40:25 20:45:40 87° 77° (ENE) 20:50:30 437.365/2234.400
DELFI C3 22 Nov 20:43:31 20:46:50 25° 70° (ENE) 20:50:11 145.870
SHINDAISAT 22 Nov 20:46:40 20:47:39 13° 245° (WSW) 20:48:37 437.305
HO-68 22 Nov 20:50:22 20:57:30 70° 256° (WSW) 21:04:42 435.675
CUTE 1.7 & AOD 2 22 Nov 20:52:16 20:56:27 65° 259° (W) 21:00:39 437.475
FUNcube-1 22 Nov 21:00:47 21:03:53 20° 68° (ENE) 21:06:57 145.935
UKube-1 22 Nov 21:02:32 21:06:43 48° 73° (ENE) 21:10:56 .
CUBEBUG 2 22 Nov 21:08:46 21:12:40 34° 72° (ENE) 21:16:29 437.445
CINEMA 3 22 Nov 21:09:36 21:14:00 58° 75° (ENE) 21:18:15 145.822/145.860
Oscar 11 22 Nov 21:16:34 21:20:51 75° 76° (ENE) 21:25:10 145.826/435.025
UWE-3 22 Nov 21:16:41 21:20:36 36° 72° (ENE) 21:24:27 435.000/436.395/437.385
GONETS M04 22 Nov 21:19:19 21:27:15 39° 274° (W) 21:35:09
BEESAT 3 22 Nov 21:26:59 21:31:03 73° 302° (WNW) 21:35:14 437.485
SEEDS 22 Nov 21:30:49 21:34:21 26° 264° (W) 21:37:54 437.485
DX 1 22 Nov 21:34:12 21:38:34 71° 258° (WSW) 21:42:58 434.975-435.025
PCSat 22 Nov 21:35:39 21:40:33 34° 306° (NW) 21:45:29 145.827
ESTCUBE 1 22 Nov 21:36:01 21:38:09 13° 64° (ENE) 21:40:17 437.505/2401.250
BEESAT 2 22 Nov 21:39:27 21:43:30 59° 303° (WNW) 21:47:38 435.950
DOVE 4 22 Nov 21:44:10 21:48:32 35° 262° (W) 21:52:41 437.250
PHONESAT 2.4 22 Nov 21:45:43 21:49:10 37° 207° (SSW) 21:52:35 2401.200-2431.200
VELOX 1 22 Nov 21:48:00 21:52:17 47° 73° (ENE) 21:56:35 145.980
AIST 1 22 Nov 21:53:17 21:54:11 11° 291° (WNW) 21:55:05
AAUSAT CUBESAT 2 22 Nov 21:55:46 21:58:42 19° 266° (W) 22:01:40 437.432
CANX-2 22 Nov 21:56:03 21:57:31 12° 269° (W) 21:58:59 2200.000
AIST 2 22 Nov 21:57:32 22:01:44 78° 301° (WNW) 22:06:03 435.215
ZACube-1 22 Nov 21:59:34 22:03:50 83° 258° (WSW) 22:08:03 437.345
HUMSAT D 22 Nov 22:10:07 22:14:16 78° 76° (ENE) 22:18:24 437.325/437.525
COMPASS 1 22 Nov 22:10:07 22:11:38 12° 269° (W) 22:13:08 437.405
GOMX 1 22 Nov 22:11:13 22:14:06 16° 267° (W) 22:16:54 467.674
AISAT 22 Nov 22:11:44 22:16:14 89° 79° (E) 22:20:45 437.250
VERMONT LUNAR 22 Nov 22:12:22 22:14:54 18° 214° (SSW) 22:17:25 437.305
RS-15 22 Nov 22:12:33 22:18:55 16° 7° (N) 22:25:23 29.354- 29.394
DELFI C3 22 Nov 22:18:50 22:22:05 23° 265° (W) 22:25:21 145.870
TIGRISAT 22 Nov 22:23:05 22:26:42 25° 96° (E) 22:30:22 435.000
50 SAT 22 Nov 22:23:10 22:27:13 88° 260° (W) 22:31:16 437.505
POLYITAN 1 22 Nov 22:25:53 22:28:44 18° 94° (E) 22:31:35 437.675
QB50P2 22 Nov 22:29:14 22:32:18 19° 94° (E) 22:35:21 145.880/145.840
UNISAT 6 22 Nov 22:34:22 22:38:23 33° 98° (E) 22:42:28 437.425
FUNcube-1 22 Nov 22:36:16 22:40:03 31° 263° (W) 22:43:47 145.935
DUCHIFAT 1 22 Nov 22:37:25 22:40:49 23° 95° (E) 22:44:11 145.980
CUBEBUG 1 22 Nov 22:38:20 22:42:42 58° 74° (ENE) 22:47:05 437.445
UKube-1 22 Nov 22:40:56 22:43:08 14° 268° (W) 22:45:21 .
SPROUT 22 Nov 22:43:17 22:45:32 14° 65° (ENE) 22:47:48 437.525
TISAT 1 22 Nov 22:44:13 22:46:57 17° 66° (ENE) 22:49:40 437.305
CUBEBUG 2 22 Nov 22:46:27 22:49:27 18° 266° (W) 22:52:24 437.445
CINEMA 3 22 Nov 22:50:05 22:51:30 11° 268° (W) 22:52:54 145.822/145.860
UWE-3 22 Nov 22:54:25 22:57:15 17° 266° (W) 23:00:02 435.000/436.395/437.385
NANOSAT C BR1 22 Nov 22:55:47 22:59:44 38° 98° (E) 23:03:40 145.865
ANTELSAT 22 Nov 23:02:23 23:06:48 71° 102° (ESE) 23:11:19 437.575/2403.000
QB50P1 22 Nov 23:05:03 23:09:10 50° 100° (E) 23:13:15 145.935-145.965
M-CUBED/EXP-1 PRIME 22 Nov 23:09:36 23:10:00 10° 55° (NE) 23:10:23 437.505
ESTCUBE 1 22 Nov 23:10:01 23:14:30 59° 259° (W) 23:19:01 437.505/2401.250
VELOX 1 22 Nov 23:26:34 23:29:06 15° 267° (W) 23:31:38 145.980
POPSAT HIP 1 22 Nov 23:29:17 23:33:31 83° 284° (WNW) 23:37:43 437.405
BUGSAT 1 22 Nov 23:34:35 23:38:42 86° 283° (WNW) 23:42:45 437.445
AIST 2 22 Nov 23:40:41 23:41:07 10° 320° (NW) 23:41:33 435.215
SWISSCUBE 22 Nov 23:41:31 23:43:36 13° 62° (ENE) 23:45:42 437.505
CUSAT 1 22 Nov 23:53:50 23:57:45 30° 79° (E) 00:02:47 437.405
TIGRISAT 22 Nov 23:59:41 00:03:24 27° 290° (WNW) 00:07:11 435.000
POLYITAN 1 23 Nov 00:00:57 00:04:47 34° 289° (WNW) 00:08:37 437.675
DANDE 23 Nov 00:04:04 00:07:52 31° 79° (E) 00:12:47 436.750
QB50P2 23 Nov 00:04:31 00:08:16 32° 289° (WNW) 00:12:01 145.880/145.840
BEESAT 23 Nov 00:11:25 00:15:12 24° 67° (ENE) 00:19:00 436.000
UNISAT 6 23 Nov 00:11:41 00:14:59 21° 292° (WNW) 00:18:19 437.425
DUCHIFAT 1 23 Nov 00:13:07 00:16:38 26° 291° (WNW) 00:20:07 145.980
SPROUT 23 Nov 00:17:00 00:21:12 49° 260° (W) 00:25:25 437.525
CUBEBUG 1 23 Nov 00:17:52 00:19:25 12° 269° (W) 00:20:58 437.445
TISAT 1 23 Nov 00:18:26 00:22:28 40° 261° (W) 00:26:30 437.305
RS-15 23 Nov 00:26:07 00:36:07 36° 41° (NE) 00:46:26 29.354- 29.394
NANOSAT C BR1 23 Nov 00:32:38 00:35:18 17° 294° (WNW) 00:37:58 145.865
Oscar 19 23 Nov 00:37:28 00:39:03 11° 90° (E) 00:40:39 437.125/150
AUBIESAT-1 23 Nov 00:37:41 00:41:33 87° 253° (WSW) 00:45:51 437.475
M-CUBED/EXP-1 PRIME 23 Nov 00:40:27 00:44:18 73° 254° (WSW) 00:48:34 437.505
ANTELSAT 23 Nov 00:42:05 00:43:03 11° 297° (WNW) 00:44:00 437.575/2403.000
QB50P1 23 Nov 00:42:37 00:44:37 13° 295° (WNW) 00:46:37 145.935-145.965
ISS 23 Nov 00:57:50 01:01:07 75° 322° (NW) 01:04:24 145.825
ITUPSAT 1 23 Nov 01:03:40 01:08:28 81° 75° (ENE) 01:13:19 437.325
STARS 23 Nov 01:04:17 01:05:05 10° 62° (ENE) 01:05:53 437.465
MaSat-1 23 Nov 01:05:30 01:06:54 14° 59° (ENE) 01:08:19 437.345
SWISSCUBE 23 Nov 01:16:05 01:20:51 69° 258° (WSW) 01:25:40 437.505
ITAMSAT 1 23 Nov 01:22:36 01:24:23 12° 90° (E) 01:26:09 435.822/435.867
KKS-1 23 Nov 01:33:59 01:37:59 33° 70° (ENE) 01:41:59 437.445
CUSAT 1 23 Nov 01:37:01 01:40:49 26° 265° (W) 01:45:33 437.405
DANDE 23 Nov 01:47:46 01:51:17 23° 265° (W) 01:55:39 436.750
BEESAT 23 Nov 01:48:31 01:52:51 34° 263° (W) 01:57:13 436.000
Oscar 19 23 Nov 02:13:45 02:18:54 76° 285° (WNW) 02:24:03 437.125/150
JUGNU 23 Nov 02:28:49 02:31:01 12° 177° (S) 02:33:14 437.505
YUBILEINY 23 Nov 02:31:38 02:39:53 47° 88° (E) 02:48:08 435.215
ISS 23 Nov 02:36:18 02:38:14 15° 340° (NNW) 02:40:10 145.825
STARS 23 Nov 02:36:33 02:40:57 72° 258° (WSW) 02:45:22 437.465
RS-15 23 Nov 02:38:15 02:49:28 74° 244° (WSW) 03:01:11 29.354- 29.394
HORYU 2 23 Nov 02:42:46 02:45:41 17° 93° (E) 02:48:35 437.375
ITAMSAT 1 23 Nov 02:59:12 03:04:23 74° 286° (WNW) 03:09:31 435.822/435.867
KKS-1 23 Nov 03:11:21 03:14:40 20° 265° (W) 03:18:00 437.445
Gurwin Techsat 1B 23 Nov 03:11:24 03:16:45 83° 103° (ESE) 03:22:03 435.225
SO-50 23 Nov 03:37:46 03:40:45 18° 109° (ESE) 03:43:48 436.795
MOZHAYETS 4 23 Nov 03:51:09 03:54:56 26° 69° (ENE) 03:58:44
JUGNU 23 Nov 04:17:56 04:19:09 11° 188° (S) 04:20:22 437.505
HORYU 2 23 Nov 04:18:18 04:22:31 41° 288° (WNW) 04:26:43 437.375
SRMSAT 23 Nov 04:21:15 04:23:35 12° 180° (S) 04:25:54 437.500
YUBILEINY 23 Nov 04:28:53 04:36:47 36° 287° (WNW) 04:44:44 435.215
AO-7 23 Nov 04:29:23 04:37:39 60° 103° (ESE) 04:45:52 29.400- 29.500
PRISM 23 Nov 04:40:32 04:43:08 16° 66° (ENE) 04:45:45 437.425
JAS-2 23 Nov 04:41:18 04:47:00 26° 91° (E) 04:52:10 435.910
PCSat 23 Nov 04:41:56 04:46:00 21° 49° (NE) 04:50:03 145.827
Gurwin Techsat 1B 23 Nov 04:53:50 04:55:58 12° 300° (WNW) 04:58:05 435.225
RS-15 23 Nov 04:54:30 04:59:54 15° 263° (W) 05:05:25 29.354- 29.394
SO-50 23 Nov 05:16:34 05:20:54 46° 306° (NW) 05:25:22 436.795
CUBESAT XI-V 23 Nov 05:23:46 05:27:00 19° 66° (ENE) 05:30:14 437.345
MOZHAYETS 4 23 Nov 05:28:07 05:32:03 28° 264° (W) 05:36:01
BEESAT 3 23 Nov 05:48:29 05:52:30 43° 55° (NE) 05:56:28 437.485
ISS 23 Nov 05:51:57 05:53:55 15° 21° (NNE) 05:55:52 145.825
CUTE-I 23 Nov 05:55:23 05:59:43 25° 95° (E) 06:04:01 437.470
BEESAT 2 23 Nov 06:01:09 06:05:17 53° 56° (NE) 06:09:22 435.950
STRAND 1 23 Nov 06:11:58 06:17:01 60° 73° (ENE) 06:22:06 437.568
PRISM 23 Nov 06:14:24 06:18:20 40° 261° (W) 06:22:20 437.425
AIST 2 23 Nov 06:21:09 06:25:16 43° 55° (NE) 06:29:20 435.215
AIST 1 23 Nov 06:22:21 06:24:37 14° 71° (ENE) 06:26:52
AO-7 23 Nov 06:22:56 06:29:55 31° 301° (WNW) 06:36:54 29.400- 29.500
PCSat 23 Nov 06:24:28 06:29:48 58° 247° (WSW) 06:35:05 145.827
JAS-2 23 Nov 06:25:26 06:32:26 53° 290° (WNW) 06:38:37 435.910
O/OREOS (USA 219) 23 Nov 06:40:28 06:44:57 71° 109° (ESE) 06:49:25 437.305
Cubesat XI-IV 23 Nov 06:52:15 06:57:36 89° 104° (ESE) 07:02:55 437.490
CUBESAT XI-V 23 Nov 06:59:36 07:04:05 43° 262° (W) 07:08:36 437.345
ISS 23 Nov 07:27:43 07:31:02 76° 38° (NE) 07:34:20 145.825
BEESAT 3 23 Nov 07:27:47 07:30:22 16° 251° (WSW) 07:32:56 437.485
CUTE-I 23 Nov 07:34:58 07:39:51 38° 291° (WNW) 07:44:41 437.470
BEESAT 2 23 Nov 07:41:10 07:43:06 13° 252° (WSW) 07:45:02 435.950
STRAND 1 23 Nov 07:53:44 07:56:34 15° 268° (W) 07:59:25 437.568
AIST 1 23 Nov 07:58:21 08:02:33 46° 267° (W) 08:06:42
AIST 2 23 Nov 08:00:47 08:03:33 17° 251° (WSW) 08:06:17 435.215
CANX-2 23 Nov 08:07:25 08:07:57 10° 90° (E) 08:08:29 2200.000
HO-68 23 Nov 08:20:38 08:26:20 25° 94° (E) 08:31:57 435.675
GONETS M04 23 Nov 08:21:03 08:29:25 52° 89° (E) 08:37:52
O/OREOS (USA 219) 23 Nov 08:23:16 08:24:51 12° 306° (NW) 08:26:27 437.305
Cubesat XI-IV 23 Nov 08:35:12 08:36:53 12° 301° (WNW) 08:38:33 437.490
GOMX 1 23 Nov 08:36:06 08:38:10 13° 92° (E) 08:40:14 467.674
CUTE 1.7 & AOD 2 23 Nov 08:39:53 08:43:21 24° 95° (E) 08:46:49 437.475
BRITE-PL 23 Nov 08:47:36 08:51:06 26° 96° (E) 08:54:36 437.365/2234.400
Oscar 11 23 Nov 09:06:57 09:09:32 15° 93° (E) 09:12:06 145.826/435.025
CINEMA 3 23 Nov 09:07:34 09:09:47 14° 93° (E) 09:12:02 145.822/145.860
SEEDS 23 Nov 09:16:22 09:20:34 54° 100° (E) 09:24:45 437.485
POLYITAN 1 23 Nov 09:19:29 09:21:16 12° 64° (ENE) 09:23:03 437.675
TIGRISAT 23 Nov 09:21:40 09:24:36 18° 67° (ENE) 09:27:32 435.000
QB50P2 23 Nov 09:22:27 09:24:32 14° 65° (ENE) 09:26:38 145.880/145.840
DX 1 23 Nov 09:25:03 09:28:25 22° 95° (E) 09:31:44 434.975-435.025
DUCHIFAT 1 23 Nov 09:29:58 09:32:35 16° 66° (ENE) 09:35:12 145.980
UNISAT 6 23 Nov 09:32:55 09:36:25 25° 69° (ENE) 09:39:54 437.425
AAUSAT CUBESAT 2 23 Nov 09:39:30 09:43:44 77° 102° (ESE) 09:47:58 437.432
CANX-2 23 Nov 09:40:01 09:44:15 61° 285° (WNW) 09:48:29 2200.000
DOVE 4 23 Nov 09:44:28 09:48:36 65° 101° (E) 09:52:49 437.250
NANOSAT C BR1 23 Nov 09:47:49 09:51:19 25° 69° (ENE) 09:54:49 145.865
ZACube-1 23 Nov 09:50:43 09:53:51 20° 95° (E) 09:57:01 437.345
COMPASS 1 23 Nov 09:52:40 09:56:52 65° 285° (WNW) 10:01:05 437.405
QB50P1 23 Nov 09:56:57 10:00:44 32° 71° (ENE) 10:04:31 145.935-145.965
HUMSAT D 23 Nov 09:57:56 10:00:08 14° 93° (E) 10:02:21 437.325/437.525
DELFI C3 23 Nov 10:00:21 10:04:25 53° 100° (E) 10:08:28 145.870
ANTELSAT 23 Nov 10:00:32 10:04:41 51° 74° (ENE) 10:08:49 437.575/2403.000
AISAT 23 Nov 10:05:40 10:08:49 19° 94° (E) 10:11:57 437.250
50 SAT 23 Nov 10:07:15 10:09:30 14° 93° (E) 10:11:45 437.505
HO-68 23 Nov 10:07:22 10:14:22 58° 291° (WNW) 10:21:20 435.675
GOMX 1 23 Nov 10:12:36 10:16:31 42° 287° (WNW) 10:20:29 467.674
CUTE 1.7 & AOD 2 23 Nov 10:15:38 10:19:14 27° 290° (WNW) 10:22:50 437.475
GONETS M04 23 Nov 10:18:49 10:26:30 33° 289° (WNW) 10:34:16
POPSAT HIP 1 23 Nov 10:20:50 10:25:03 61° 75° (ENE) 10:29:15 437.405
BUGSAT 1 23 Nov 10:23:15 10:27:25 53° 74° (ENE) 10:31:34 437.445
FUNcube-1 23 Nov 10:25:52 10:29:59 51° 100° (E) 10:34:09 145.935
BRITE-PL 23 Nov 10:26:21 10:29:31 22° 291° (WNW) 10:32:42 437.365/2234.400
UKube-1 23 Nov 10:27:55 10:32:16 72° 285° (WNW) 10:36:34 .
CUBEBUG 1 23 Nov 10:31:21 10:33:01 12° 91° (E) 10:34:41 437.445
CUBEBUG 2 23 Nov 10:37:32 10:41:45 82° 284° (WNW) 10:46:04 437.445
Oscar 11 23 Nov 10:41:46 10:45:52 42° 287° (WNW) 10:49:58 145.826/435.025
CINEMA 3 23 Nov 10:43:13 10:47:12 43° 287° (WNW) 10:51:16 145.822/145.860
UWE-3 23 Nov 10:44:11 10:48:25 80° 284° (WNW) 10:52:43 435.000/436.395/437.385
POLYITAN 1 23 Nov 10:52:33 10:56:44 55° 260° (W) 11:00:56 437.675
SEEDS 23 Nov 10:54:06 10:55:55 13° 295° (WNW) 10:57:45 437.485
QB50P2 23 Nov 10:55:52 11:00:01 50° 260° (W) 11:04:11 145.880/145.840
TIGRISAT 23 Nov 10:57:12 11:01:07 34° 262° (W) 11:05:01 435.000
DX 1 23 Nov 11:00:51 11:04:39 30° 290° (WNW) 11:08:26 434.975-435.025
DUCHIFAT 1 23 Nov 11:04:05 11:08:07 41° 261° (W) 11:12:09 145.980
ESTCUBE 1 23 Nov 11:04:50 11:08:54 32° 97° (E) 11:12:56 437.505/2401.250
UNISAT 6 23 Nov 11:09:35 11:13:08 25° 264° (W) 11:16:41 437.425
VELOX 1 23 Nov 11:16:50 11:21:15 68° 285° (WNW) 11:25:37 145.980
NANOSAT C BR1 23 Nov 11:23:36 11:27:07 25° 264° (W) 11:30:39 145.865
ZACube-1 23 Nov 11:26:33 11:30:15 30° 289° (WNW) 11:34:00 437.345
HUMSAT D 23 Nov 11:32:13 11:36:09 42° 287° (WNW) 11:40:06 437.325/437.525
QB50P1 23 Nov 11:33:33 11:36:40 20° 266° (W) 11:39:48 145.935-145.965
DELFI C3 23 Nov 11:37:39 11:39:15 12° 295° (WNW) 11:40:50 145.870
ANTELSAT 23 Nov 11:40:07 11:41:47 12° 268° (W) 11:43:26 437.575/2403.000
50 SAT 23 Nov 11:41:12 11:44:59 39° 287° (WNW) 11:48:47 437.505
AISAT 23 Nov 11:41:31 11:45:32 35° 289° (WNW) 11:49:33 437.250
Oscar 19 23 Nov 11:52:29 11:55:27 16° 63° (ENE) 11:58:26 437.125/150
HO-68 23 Nov 12:00:04 12:00:34 10° 310° (NW) 12:01:04 435.675
POPSAT HIP 1 23 Nov 12:00:52 12:01:19 10° 269° (W) 12:01:46 437.405
BUGSAT 1 23 Nov 12:01:39 12:03:12 12° 269° (W) 12:04:45 437.445
FUNcube-1 23 Nov 12:03:59 12:05:55 13° 295° (WNW) 12:07:52 145.935
TISAT 1 23 Nov 12:05:12 12:09:03 34° 98° (E) 12:12:52 437.305
CUBEBUG 1 23 Nov 12:05:27 12:09:43 54° 286° (WNW) 12:13:56 437.445
SPROUT 23 Nov 12:05:42 12:09:30 30° 97° (E) 12:13:17 437.525
SO-50 23 Nov 12:10:02 12:12:56 16° 43° (NE) 12:15:50 436.795
AUBIESAT-1 23 Nov 12:24:49 12:25:45 11° 94° (E) 12:26:41 437.475
M-CUBED/EXP-1 PRIME 23 Nov 12:26:47 12:28:57 13° 95° (E) 12:31:06 437.505
ITAMSAT 1 23 Nov 12:38:32 12:41:53 18° 63° (ENE) 12:45:14 435.822/435.867
ESTCUBE 1 23 Nov 12:42:02 12:45:35 23° 292° (WNW) 12:49:07 437.505/2401.250
YUBILEINY 23 Nov 12:44:32 12:50:42 21° 66° (ENE) 12:56:47 435.215
Gurwin Techsat 1B 23 Nov 12:54:25 12:57:02 14° 61° (ENE) 12:59:39 435.225
ITUPSAT 1 23 Nov 13:06:46 13:10:36 23° 95° (E) 13:14:25 437.325
CUSAT 1 23 Nov 13:07:11 13:09:42 26° 96° (E) 13:11:59 437.405
SWISSCUBE 23 Nov 13:18:29 13:22:51 34° 98° (E) 13:27:11 437.505
DANDE 23 Nov 13:19:55 13:22:45 33° 97° (E) 13:25:13 436.750
Oscar 19 23 Nov 13:29:13 13:34:16 61° 259° (W) 13:39:20 437.125/150
AO-7 23 Nov 13:39:13 13:43:22 15° 49° (NE) 13:47:31 29.400- 29.500
HORYU 2 23 Nov 13:41:06 13:43:22 14° 64° (ENE) 13:45:38 437.375
TISAT 1 23 Nov 13:41:44 13:44:38 18° 293° (WNW) 13:47:32 437.305
SPROUT 23 Nov 13:42:11 13:45:24 21° 292° (WNW) 13:48:36 437.525
SO-50 23 Nov 13:49:10 13:54:04 80° 240° (WSW) 13:58:57 436.795
BEESAT 23 Nov 13:49:55 13:54:43 69° 102° (ESE) 13:59:28 436.000
AUBIESAT-1 23 Nov 13:56:17 14:01:14 82° 289° (WNW) 14:06:04 437.475
M-CUBED/EXP-1 PRIME 23 Nov 13:59:28 14:04:23 70° 290° (WNW) 14:09:13 437.505
ITAMSAT 1 23 Nov 14:15:46 14:20:53 57° 259° (W) 14:26:02 435.822/435.867
STARS 23 Nov 14:28:54 14:32:25 23° 95° (E) 14:35:55 437.465
Gurwin Techsat 1B 23 Nov 14:31:01 14:36:19 74° 258° (WSW) 14:41:39 435.225
PHONESAT 2.4 23 Nov 14:40:35 14:41:47 11° 142° (SE) 14:43:00 2401.200-2431.200
